Weather History for Rabat-Sale, Morocco

Change the Weather History Date:

Friday, December 14, 2012

  Actual Average Record
Temperature  
Mean Temperature 57 °F -  
Max Temperature 65 °F 62 °F 75 °F (1998)
Min Temperature 49 °F 45 °F 35 °F (2005)
Degree Days  
Heating Degree Days 8    
Growing Degree Days 7 (Base 50)    
Moisture  
Dew Point 50 °F    
Average Humidity 81    
Maximum Humidity 94    
Minimum Humidity 49    
Precipitation  
Precipitation 0.00 in 0.12 in - ()
Sea Level Pressure  
Sea Level Pressure 30.15 in    
Wind  
Wind Speed 3 mph ()    
Max Wind Speed 12 mph    
Max Gust Speed -    
Visibility 4.2 miles    
Events      
Averages and records for this station are not official NWS values.
T = Trace of Precipitation, MM = Missing Value Source: Averaged Metar Reports

Daily Weather History Graph

Daily Weather History Graph

Search for Another Location

Airport:

Trip Planner

Search our weather history database for the weather conditions in past years. The results will help you decide how hot, cold, wet, or windy it might be!

Date:

Astronomy

Dec. 14, 2012 Rise Set
Actual Time 7:24 AM WET 5:19 PM WET
Civil Twilight 6:56 AM WET 5:46 PM WET
Nautical Twilight 6:25 AM WET 6:18 PM WET
Astronomical Twilight 5:55 AM WET 6:48 PM WET
Moon 8:19 AM WET (12/14) 6:52 PM WET (12/14)
Length of Visible Light 10h 49m
Length of Day
9h 54m
New Moon, 2% of the Moon is Illuminated
Dec 14
New Moon
Dec 20
First Quarter
Dec 28
Full
Jan 5
Last Quarter
Jan 11
New

Hourly Weather History & Observations

Time (WET) Temp. Dew Point Humidity Pressure Visibility Wind Dir Wind Speed Gust Speed Precip Events Conditions
12:00 AM 53 °F 51 °F 89% 30.10 in 3 mi SSE 5.8 mph - -   Partly Cloudy
12:00 AM 53.6 °F 50.0 °F 88% 30.09 in 3.1 mi SSE 5.8 mph - N/A   Scattered Clouds
1:00 AM 51.8 °F 50.0 °F 94% 30.09 in 3.1 mi SSE 4.6 mph - N/A   Scattered Clouds
1:30 AM 51.8 °F 48.2 °F 88% 30.09 in - Calm Calm - N/A   Unknown
2:00 AM 50.0 °F 48.2 °F 94% 30.09 in 3.1 mi South 2.3 mph - N/A   Scattered Clouds
2:30 AM 50.0 °F 48.2 °F 94% 30.09 in 3.1 mi Variable 2.3 mph - N/A   Scattered Clouds
3:00 AM 51 °F 49 °F 90% 30.13 in 3 mi Calm Calm - -   Partly Cloudy
3:00 AM 51.8 °F 48.2 °F 88% 30.12 in 3.1 mi Calm Calm - N/A   Scattered Clouds
3:30 AM 51.8 °F 50.0 °F 94% 30.12 in - Calm Calm - N/A   Unknown
4:00 AM 51.8 °F 50.0 °F 94% 30.09 in 3.1 mi Calm Calm - N/A   Scattered Clouds
4:30 AM 51.8 °F 48.2 °F 88% 30.09 in 3.1 mi Calm Calm - N/A   Scattered Clouds
5:00 AM 50.0 °F 48.2 °F 94% 30.12 in 3.1 mi Calm Calm - N/A   Scattered Clouds
5:30 AM 50.0 °F 48.2 °F 94% 30.12 in 3.1 mi Calm Calm - N/A   Scattered Clouds
6:00 AM 50 °F 48 °F 90% 30.13 in 3 mi Calm Calm - -   Partly Cloudy
6:00 AM 50.0 °F 48.2 °F 94% 30.12 in 3.1 mi Calm Calm - N/A   Scattered Clouds
6:30 AM 50.0 °F 48.2 °F 94% 30.12 in 3.1 mi Calm Calm - N/A   Scattered Clouds
7:00 AM 51.8 °F 48.2 °F 88% 30.12 in 3.1 mi Calm Calm - N/A   Scattered Clouds
7:30 AM 50.0 °F 46.4 °F 87% 30.12 in 3.1 mi Calm Calm - N/A   Scattered Clouds
8:00 AM 50.0 °F 46.4 °F 87% 30.12 in 3.1 mi Calm Calm - N/A   Scattered Clouds
8:30 AM 53.6 °F 50.0 °F 88% 30.15 in 3.1 mi Calm Calm - N/A   Scattered Clouds
9:00 AM 56 °F 50 °F 73% 30.15 in 4 mi Calm Calm - -   Scattered Clouds
9:00 AM 55.4 °F 50.0 °F 82% 30.12 in 3.7 mi Calm Calm - N/A   Mostly Cloudy
9:30 AM 59.0 °F 50.0 °F 72% 30.15 in 3.7 mi Calm Calm - N/A   Mostly Cloudy
10:00 AM 60.8 °F 50.0 °F 68% 30.15 in 5.0 mi Calm Calm - N/A   Mostly Cloudy
10:30 AM 60.8 °F 50.0 °F 68% 30.15 in 5.0 mi Calm Calm - N/A   Mostly Cloudy
11:00 AM 62.6 °F 50.0 °F 63% 30.15 in 5.0 mi SSW 6.9 mph - N/A   Mostly Cloudy
12:00 PM 64 °F 50 °F 49% 30.17 in 5 mi West 8.1 mph - -   Scattered Clouds
12:00 PM 64.4 °F 51.8 °F 64% 30.15 in 5.0 mi WSW 5.8 mph - N/A   Mostly Cloudy
12:30 PM 64.4 °F 50.0 °F 59% 30.15 in 5.0 mi West 11.5 mph - N/A   Mostly Cloudy
1:00 PM 64.4 °F 50.0 °F 59% 30.15 in 5.0 mi West 11.5 mph - N/A   Scattered Clouds
2:00 PM 64.4 °F 50.0 °F 59% 30.15 in 5.0 mi West 10.4 mph - N/A   Mostly Cloudy
3:00 PM 64 °F 51 °F 54% 30.15 in 5 mi West 9.2 mph - -   Scattered Clouds
3:00 PM 64.4 °F 51.8 °F 64% 30.15 in 5.0 mi West 8.1 mph - N/A   Mostly Cloudy
3:30 PM 62.6 °F 51.8 °F 68% 30.15 in 5.0 mi West 6.9 mph - N/A   Mostly Cloudy
4:00 PM 62.6 °F 51.8 °F 68% 30.15 in 5.0 mi West 6.9 mph - N/A   Mostly Cloudy
4:30 PM 60.8 °F 51.8 °F 72% 30.15 in 5.0 mi West 5.8 mph - N/A   Mostly Cloudy
5:00 PM 60.8 °F 51.8 °F 72% 30.15 in 5.0 mi WSW 5.8 mph - N/A   Mostly Cloudy
5:30 PM 57.2 °F 51.8 °F 82% 30.18 in 5.0 mi Calm Calm - N/A   Mostly Cloudy
6:00 PM 57 °F 52 °F 79% 30.18 in 5 mi Calm Calm - -   Scattered Clouds
6:00 PM 57.2 °F 51.8 °F 82% 30.18 in 5.0 mi Calm Calm - N/A   Mostly Cloudy
6:30 PM 57.2 °F 51.8 °F 82% 30.18 in 5.0 mi Calm Calm - N/A   Mostly Cloudy
7:00 PM 55.4 °F 51.8 °F 88% 30.18 in 5.0 mi South 5.8 mph - N/A   Mostly Cloudy
7:30 PM 55.4 °F 51.8 °F 88% 30.18 in 5.0 mi South 5.8 mph - N/A   Mostly Cloudy
8:00 PM 55.4 °F 51.8 °F 88% 30.18 in 5.0 mi South 5.8 mph - N/A   Mostly Cloudy
8:30 PM 53.6 °F 50.0 °F 88% 30.21 in 5.0 mi South 4.6 mph - N/A   Mostly Cloudy
9:00 PM 54 °F 51 °F 84% 30.23 in 5 mi South 5.8 mph - -   Scattered Clouds
9:00 PM 53.6 °F 50.0 °F 88% 30.21 in 5.0 mi South 5.8 mph - N/A   Mostly Cloudy
9:30 PM 53.6 °F 50.0 °F 88% 30.21 in 5.0 mi Calm Calm - N/A   Mostly Cloudy
10:00 PM 53.6 °F 50.0 °F 88% 30.21 in 5.0 mi South 6.9 mph - N/A   Mostly Cloudy
10:30 PM 53.6 °F 50.0 °F 88% 30.21 in 5.0 mi South 5.8 mph - N/A   Mostly Cloudy
11:00 PM 53.6 °F 50.0 °F 88% 30.21 in 5.0 mi South 5.8 mph - N/A   Mostly Cloudy
11:30 PM 53.6 °F 50.0 °F 88% 30.21 in 5.0 mi South 6.9 mph - N/A   Mostly Cloudy